Tracking 30743 objects as of 23-Jun-2025
HD Live streaming from Space Station
objects crossing your sky now

HORIZON GORIZONT

Track HORIZON GORIZONT now!
10-day predictions


NORAD ID: 61757
Int'l Code: 2024-199Y
Perigee: 449.4 km
Apogee: 466.3 km
Inclination: 97.4 °
Period: 93.6 minutes
Semi major axis: 6828 km
RCS: Unknown
Launch date: November 4, 2024
Source: Commonwealth of Independent States (former USSR) (CIS)
Launch site: VOSTOCHNY COSMODROME (VOSTO)
Your satellite tracking list
Your tracking list is empty




NASA's NSSDC Master Catalog

Two Line Element Set (TLE):
1 61757U 24199Y   25173.59821903  .00016983  00000-0  44834-3 0  9999
2 61757  97.3548  43.0668 0012375 126.5924 233.6462 15.38451099 82144
Source of the keplerian elements: AFSPC